{"data":{"norad_id":57582,"epoch":"2026-05-25T05:26:08.484576Z","epoch_age_seconds":65601,"freshness":"FRESH","line1":"1 57582U 23117C   26145.22648709  .00022491  00000+0  57396-3 0  9997","line2":"2 57582  97.4069 225.9620 0005118 323.6899  36.3998 15.39500335155031","mean_motion":15.39500335,"eccentricity":0.0005118,"inclination_deg":97.4069,"raan_deg":225.962,"arg_perigee_deg":323.6899,"mean_anomaly_deg":36.3998,"bstar":0.00057396,"rev_number":15503,"period_min":93.536842263825,"perigee_km":444.09243219156,"apogee_km":451.07924208766,"semimajor_km":6825.7228371396,"source":"CELESTRAK","updated_at":"2026-05-25T13:38:00.137950Z"}}